Time,TemperatureF,DewpointF,PressureIn,WindDirection,WindDirectionDegrees,WindSpeedMPH,WindSpeedGustMPH,Humidity,HourlyPrecipIn,Conditions,Clouds,dailyrainin,SoftwareType,DateUTC
2013-01-25 00:02:00,13.0,2.0,30.34,North,-999,0.0,-999.0,60,-99.99,,,-99.99,,2013-01-25 06:02:00,
2013-01-25 00:11:00,13.0,2.0,30.34,North,-999,0.0,-999.0,60,-99.99,,,-99.99,,2013-01-25 06:11:00,
2013-01-25 00:21:00,14.0,2.0,30.33,North,-999,0.0,-999.0,59,-99.99,,,-99.99,,2013-01-25 06:21:00,
2013-01-25 00:32:00,14.0,3.0,30.33,North,-999,0.0,-999.0,60,-99.99,,,-99.99,,2013-01-25 06:32:00,
2013-01-25 00:42:00,14.0,3.0,30.33,North,-999,0.0,-999.0,60,-99.99,,,-99.99,,2013-01-25 06:42:00,
2013-01-25 00:52:00,14.0,3.0,30.32,North,-999,0.0,-999.0,62,-99.99,,,-99.99,,2013-01-25 06:52:00,
2013-01-25 01:02:00,14.0,5.0,30.33,North,-999,0.0,-999.0,67,-99.99,,,-99.99,,2013-01-25 07:02:00,
2013-01-25 01:11:00,14.0,5.0,30.33,North,-999,0.0,-999.0,67,-99.99,,,-99.99,,2013-01-25 07:11:00,
2013-01-25 01:21:00,14.0,7.0,30.30,North,-999,0.0,-999.0,72,-99.99,,,-99.99,,2013-01-25 07:21:00,
2013-01-25 01:32:00,14.0,8.0,30.29,North,-999,0.0,-999.0,75,-99.99,,,-99.99,,2013-01-25 07:32:00,
2013-01-25 01:42:00,14.0,8.0,30.29,North,-999,0.0,-999.0,75,-99.99,,,-99.99,,2013-01-25 07:42:00,
2013-01-25 01:51:00,13.0,7.0,30.28,North,-999,0.0,-999.0,76,-99.99,,,-99.99,,2013-01-25 07:51:00,
2013-01-25 02:01:00,14.0,8.0,30.27,North,-999,0.0,-999.0,77,-99.99,,,-99.99,,2013-01-25 08:01:00,
2013-01-25 02:11:00,14.0,8.0,30.27,North,-999,0.0,-999.0,77,-99.99,,,-99.99,,2013-01-25 08:11:00,
2013-01-25 02:21:00,14.0,8.0,30.27,North,-999,0.0,-999.0,77,-99.99,,,-99.99,,2013-01-25 08:21:00,
2013-01-25 02:32:00,14.0,8.0,30.26,North,-999,0.0,-999.0,77,-99.99,,,-99.99,,2013-01-25 08:32:00,
2013-01-25 02:41:00,14.0,8.0,30.26,North,-999,0.0,-999.0,77,-99.99,,,-99.99,,2013-01-25 08:41:00,
2013-01-25 02:52:00,14.0,8.0,30.25,North,-999,0.0,-999.0,77,-99.99,,,-99.99,,2013-01-25 08:52:00,
2013-01-25 03:02:00,14.0,8.0,30.24,North,-999,0.0,-999.0,76,-99.99,,,-99.99,,2013-01-25 09:02:00,
2013-01-25 03:11:00,14.0,8.0,30.24,North,-999,0.0,-999.0,76,-99.99,,,-99.99,,2013-01-25 09:11:00,
2013-01-25 03:21:00,14.0,8.0,30.24,North,-999,0.0,-999.0,76,-99.99,,,-99.99,,2013-01-25 09:21:00,
2013-01-25 03:31:00,14.0,8.0,30.22,North,-999,0.0,-999.0,75,-99.99,,,-99.99,,2013-01-25 09:31:00,
2013-01-25 03:41:00,14.0,8.0,30.22,North,-999,0.0,-999.0,75,-99.99,,,-99.99,,2013-01-25 09:41:00,
2013-01-25 03:52:00,15.0,9.0,30.22,North,-999,0.0,-999.0,75,-99.99,,,-99.99,,2013-01-25 09:52:00,
2013-01-25 04:02:00,15.0,8.0,30.20,North,-999,0.0,-999.0,74,-99.99,,,-99.99,,2013-01-25 10:02:00,
2013-01-25 04:12:00,15.0,8.0,30.20,North,-999,0.0,-999.0,74,-99.99,,,-99.99,,2013-01-25 10:12:00,
2013-01-25 04:21:00,15.0,8.0,30.18,North,-999,0.0,-999.0,73,-99.99,,,-99.99,,2013-01-25 10:21:00,
2013-01-25 04:32:00,15.0,8.0,30.17,North,-999,0.0,-999.0,72,-99.99,,,-99.99,,2013-01-25 10:32:00,
2013-01-25 04:42:00,15.0,8.0,30.17,North,-999,0.0,-999.0,72,-99.99,,,-99.99,,2013-01-25 10:42:00,
2013-01-25 04:51:00,15.0,7.0,30.16,North,-999,0.0,-999.0,71,-99.99,,,-99.99,,2013-01-25 10:51:00,
2013-01-25 05:02:00,16.0,8.0,30.16,North,-999,0.0,-999.0,70,-99.99,,,-99.99,,2013-01-25 11:02:00,
2013-01-25 05:11:00,16.0,8.0,30.16,North,-999,0.0,-999.0,70,-99.99,,,-99.99,,2013-01-25 11:11:00,
2013-01-25 05:22:00,16.0,8.0,30.14,North,-999,0.0,-999.0,69,-99.99,,,-99.99,,2013-01-25 11:22:00,
2013-01-25 05:32:00,16.0,7.0,30.14,North,-999,0.0,-999.0,68,-99.99,,,-99.99,,2013-01-25 11:32:00,
2013-01-25 05:42:00,16.0,7.0,30.14,North,-999,0.0,-999.0,68,-99.99,,,-99.99,,2013-01-25 11:42:00,
2013-01-25 05:52:00,16.0,7.0,30.14,North,-999,0.0,-999.0,68,-99.99,,,-99.99,,2013-01-25 11:52:00,
2013-01-25 06:02:00,16.0,8.0,30.13,North,-999,0.0,-999.0,69,-99.99,,,-99.99,,2013-01-25 12:02:00,
2013-01-25 06:11:00,16.0,8.0,30.13,North,-999,0.0,-999.0,69,-99.99,,,-99.99,,2013-01-25 12:11:00,
2013-01-25 06:22:00,16.0,8.0,30.12,North,-999,0.0,-999.0,69,-99.99,,,-99.99,,2013-01-25 12:22:00,
2013-01-25 06:32:00,16.0,8.0,30.12,North,-999,0.0,-999.0,70,-99.99,,,-99.99,,2013-01-25 12:32:00,
2013-01-25 06:42:00,16.0,8.0,30.12,North,-999,0.0,-999.0,70,-99.99,,,-99.99,,2013-01-25 12:42:00,
2013-01-25 06:53:00,16.0,8.0,30.11,North,-999,0.0,-999.0,71,-99.99,,,-99.99,,2013-01-25 12:53:00,
2013-01-25 07:02:00,16.0,9.0,30.11,North,-999,0.0,-999.0,72,-99.99,,,-99.99,,2013-01-25 13:02:00,
2013-01-25 07:11:00,16.0,9.0,30.11,North,-999,0.0,-999.0,72,-99.99,,,-99.99,,2013-01-25 13:11:00,
2013-01-25 07:22:00,16.0,9.0,30.12,North,-999,0.0,-999.0,73,-99.99,,,-99.99,,2013-01-25 13:22:00,
2013-01-25 07:32:00,16.0,9.0,30.12,North,-999,0.0,-999.0,74,-99.99,,,-99.99,,2013-01-25 13:32:00,
2013-01-25 07:42:00,16.0,9.0,30.12,North,-999,0.0,-999.0,74,-99.99,,,-99.99,,2013-01-25 13:42:00,
2013-01-25 07:52:00,16.0,9.0,30.11,North,-999,0.0,-999.0,74,-99.99,,,-99.99,,2013-01-25 13:52:00,
2013-01-25 08:03:00,16.0,9.0,30.11,North,-999,0.0,-999.0,75,-99.99,,,-99.99,,2013-01-25 14:03:00,
2013-01-25 08:12:00,16.0,9.0,30.11,North,-999,0.0,-999.0,75,-99.99,,,-99.99,,2013-01-25 14:12:00,
2013-01-25 08:22:00,16.0,10.0,30.11,North,-999,0.0,-999.0,76,-99.99,,,-99.99,,2013-01-25 14:22:00,
2013-01-25 08:32:00,17.0,11.0,30.11,North,-999,0.0,-999.0,76,-99.99,,,-99.99,,2013-01-25 14:32:00,
2013-01-25 08:42:00,17.0,11.0,30.11,North,-999,0.0,-999.0,76,-99.99,,,-99.99,,2013-01-25 14:42:00,
2013-01-25 08:52:00,17.0,11.0,30.11,North,-999,0.0,-999.0,77,-99.99,,,-99.99,,2013-01-25 14:52:00,
2013-01-25 09:02:00,17.0,11.0,30.11,North,-999,0.0,-999.0,78,-99.99,,,-99.99,,2013-01-25 15:02:00,
2013-01-25 09:12:00,17.0,11.0,30.11,North,-999,0.0,-999.0,78,-99.99,,,-99.99,,2013-01-25 15:12:00,
2013-01-25 09:22:00,18.0,12.0,30.11,North,-999,0.0,-999.0,78,-99.99,,,-99.99,,2013-01-25 15:22:00,
2013-01-25 09:32:00,18.0,13.0,30.12,North,-999,0.0,-999.0,80,-99.99,,,-99.99,,2013-01-25 15:32:00,
2013-01-25 09:42:00,18.0,13.0,30.12,North,-999,0.0,-999.0,80,-99.99,,,-99.99,,2013-01-25 15:42:00,
2013-01-25 09:52:00,17.0,6.0,30.13,North,-999,0.0,-999.0,61,-99.99,,,-99.99,,2013-01-25 15:52:00,
2013-01-25 10:03:00,16.0,5.0,30.14,North,-999,0.0,-999.0,62,-99.99,,,-99.99,,2013-01-25 16:03:00,
2013-01-25 10:12:00,16.0,5.0,30.14,North,-999,0.0,-999.0,62,-99.99,,,-99.99,,2013-01-25 16:12:00,
2013-01-25 10:22:00,15.0,5.0,30.15,North,-999,0.0,-999.0,65,-99.99,,,-99.99,,2013-01-25 16:22:00,
2013-01-25 10:32:00,15.0,6.0,30.15,North,-999,0.0,-999.0,66,-99.99,,,-99.99,,2013-01-25 16:32:00,
2013-01-25 10:42:00,15.0,6.0,30.15,North,-999,0.0,-999.0,66,-99.99,,,-99.99,,2013-01-25 16:42:00,
2013-01-25 10:52:00,14.0,4.0,30.16,North,-999,0.0,-999.0,64,-99.99,,,-99.99,,2013-01-25 16:52:00,
2013-01-25 11:02:00,14.0,4.0,30.16,North,-999,0.0,-999.0,64,-99.99,,,-99.99,,2013-01-25 17:02:00,
2013-01-25 11:12:00,14.0,4.0,30.16,North,-999,0.0,-999.0,64,-99.99,,,-99.99,,2013-01-25 17:12:00,
2013-01-25 11:22:00,14.0,4.0,30.16,North,-999,0.0,-999.0,64,-99.99,,,-99.99,,2013-01-25 17:22:00,
2013-01-25 11:32:00,13.0,3.0,30.17,North,-999,0.0,-999.0,64,-99.99,,,-99.99,,2013-01-25 17:32:00,
2013-01-25 11:42:00,13.0,3.0,30.17,North,-999,0.0,-999.0,64,-99.99,,,-99.99,,2013-01-25 17:42:00,
2013-01-25 11:52:00,13.0,3.0,30.19,North,-999,0.0,-999.0,64,-99.99,,,-99.99,,2013-01-25 17:52:00,
2013-01-25 12:03:00,13.0,3.0,30.19,North,-999,0.0,-999.0,65,-99.99,,,-99.99,,2013-01-25 18:03:00,
2013-01-25 12:12:00,13.0,3.0,30.19,North,-999,0.0,-999.0,65,-99.99,,,-99.99,,2013-01-25 18:12:00,
2013-01-25 12:23:00,13.0,3.0,30.20,North,-999,0.0,-999.0,63,-99.99,,,-99.99,,2013-01-25 18:23:00,
2013-01-25 12:33:00,12.0,3.0,30.20,North,-999,0.0,-999.0,65,-99.99,,,-99.99,,2013-01-25 18:33:00,
2013-01-25 12:42:00,12.0,3.0,30.20,North,-999,0.0,-999.0,65,-99.99,,,-99.99,,2013-01-25 18:42:00,
2013-01-25 12:52:00,12.0,2.0,30.21,North,-999,0.0,-999.0,64,-99.99,,,-99.99,,2013-01-25 18:52:00,
2013-01-25 13:03:00,13.0,3.0,30.21,North,-999,0.0,-999.0,65,-99.99,,,-99.99,,2013-01-25 19:03:00,
2013-01-25 13:12:00,13.0,3.0,30.21,North,-999,0.0,-999.0,65,-99.99,,,-99.99,,2013-01-25 19:12:00,
2013-01-25 13:22:00,13.0,3.0,30.21,North,-999,0.0,-999.0,64,-99.99,,,-99.99,,2013-01-25 19:22:00,
2013-01-25 13:32:00,12.0,2.0,30.22,North,-999,0.0,-999.0,64,-99.99,,,-99.99,,2013-01-25 19:32:00,
2013-01-25 13:42:00,12.0,2.0,30.22,North,-999,0.0,-999.0,64,-99.99,,,-99.99,,2013-01-25 19:42:00,
2013-01-25 13:52:00,12.0,2.0,30.22,North,-999,0.0,-999.0,64,-99.99,,,-99.99,,2013-01-25 19:52:00,
2013-01-25 14:02:00,13.0,3.0,30.22,North,-999,0.0,-999.0,63,-99.99,,,-99.99,,2013-01-25 20:02:00,
2013-01-25 14:12:00,13.0,3.0,30.22,North,-999,0.0,-999.0,63,-99.99,,,-99.99,,2013-01-25 20:12:00,
2013-01-25 14:22:00,13.0,3.0,30.23,North,-999,0.0,-999.0,63,-99.99,,,-99.99,,2013-01-25 20:22:00,
2013-01-25 14:32:00,13.0,3.0,30.24,North,-999,0.0,-999.0,63,-99.99,,,-99.99,,2013-01-25 20:32:00,
2013-01-25 14:42:00,13.0,3.0,30.24,North,-999,0.0,-999.0,63,-99.99,,,-99.99,,2013-01-25 20:42:00,
2013-01-25 14:52:00,13.0,3.0,30.25,North,-999,0.0,-999.0,63,-99.99,,,-99.99,,2013-01-25 20:52:00,
2013-01-25 15:02:00,13.0,2.0,30.26,North,-999,0.0,-999.0,62,-99.99,,,-99.99,,2013-01-25 21:02:00,
2013-01-25 15:12:00,13.0,2.0,30.26,North,-999,0.0,-999.0,62,-99.99,,,-99.99,,2013-01-25 21:12:00,
2013-01-25 15:22:00,12.0,2.0,30.27,North,-999,0.0,-999.0,63,-99.99,,,-99.99,,2013-01-25 21:22:00,
2013-01-25 15:32:00,12.0,2.0,30.27,North,-999,0.0,-999.0,63,-99.99,,,-99.99,,2013-01-25 21:32:00,
2013-01-25 15:42:00,12.0,2.0,30.27,North,-999,0.0,-999.0,63,-99.99,,,-99.99,,2013-01-25 21:42:00,
2013-01-25 15:52:00,12.0,2.0,30.27,North,-999,0.0,-999.0,63,-99.99,,,-99.99,,2013-01-25 21:52:00,
2013-01-25 16:02:00,11.0,1.0,30.27,North,-999,0.0,-999.0,64,-99.99,,,-99.99,,2013-01-25 22:02:00,
2013-01-25 16:11:00,11.0,1.0,30.27,North,-999,0.0,-999.0,64,-99.99,,,-99.99,,2013-01-25 22:11:00,
2013-01-25 16:22:00,12.0,2.0,30.28,North,-999,0.0,-999.0,64,-99.99,,,-99.99,,2013-01-25 22:22:00,
2013-01-25 16:32:00,11.0,1.0,30.29,North,-999,0.0,-999.0,64,-99.99,,,-99.99,,2013-01-25 22:32:00,
2013-01-25 16:42:00,11.0,1.0,30.29,North,-999,0.0,-999.0,64,-99.99,,,-99.99,,2013-01-25 22:42:00,
2013-01-25 16:52:00,11.0,2.0,30.29,North,-999,0.0,-999.0,65,-99.99,,,-99.99,,2013-01-25 22:52:00,
2013-01-25 17:02:00,10.0,1.0,30.30,North,-999,0.0,-999.0,65,-99.99,,,-99.99,,2013-01-25 23:02:00,
2013-01-25 17:12:00,10.0,1.0,30.30,North,-999,0.0,-999.0,65,-99.99,,,-99.99,,2013-01-25 23:12:00,
2013-01-25 17:22:00,10.0,1.0,30.30,North,-999,0.0,-999.0,66,-99.99,,,-99.99,,2013-01-25 23:22:00,
2013-01-25 17:32:00,9.0,0.0,30.32,North,-999,0.0,-999.0,67,-99.99,,,-99.99,,2013-01-25 23:32:00,
2013-01-25 17:42:00,9.0,0.0,30.32,North,-999,0.0,-999.0,67,-99.99,,,-99.99,,2013-01-25 23:42:00,
2013-01-25 17:52:00,9.0,1.0,30.32,North,-999,0.0,-999.0,68,-99.99,,,-99.99,,2013-01-25 23:52:00,
2013-01-25 18:02:00,8.0,0.0,30.32,North,-999,0.0,-999.0,68,-99.99,,,-99.99,,2013-01-26 00:02:00,
2013-01-25 18:11:00,8.0,0.0,30.32,North,-999,0.0,-999.0,68,-99.99,,,-99.99,,2013-01-26 00:11:00,
2013-01-25 18:22:00,8.0,0.0,30.32,North,-999,0.0,-999.0,69,-99.99,,,-99.99,,2013-01-26 00:22:00,
2013-01-25 18:32:00,8.0,0.0,30.33,North,-999,0.0,-999.0,69,-99.99,,,-99.99,,2013-01-26 00:32:00,
2013-01-25 18:42:00,8.0,0.0,30.33,North,-999,0.0,-999.0,69,-99.99,,,-99.99,,2013-01-26 00:42:00,
2013-01-25 18:52:00,8.0,0.0,30.33,North,-999,0.0,-999.0,70,-99.99,,,-99.99,,2013-01-26 00:52:00,
2013-01-25 19:02:00,7.0,-1.0,30.35,North,-999,0.0,-999.0,70,-99.99,,,-99.99,,2013-01-26 01:02:00,
2013-01-25 19:11:00,7.0,-1.0,30.35,North,-999,0.0,-999.0,70,-99.99,,,-99.99,,2013-01-26 01:11:00,
2013-01-25 19:22:00,7.0,0.0,30.37,North,-999,0.0,-999.0,71,-99.99,,,-99.99,,2013-01-26 01:22:00,
2013-01-25 19:32:00,6.0,-1.0,30.37,North,-999,0.0,-999.0,72,-99.99,,,-99.99,,2013-01-26 01:32:00,
2013-01-25 19:42:00,6.0,-1.0,30.37,North,-999,0.0,-999.0,72,-99.99,,,-99.99,,2013-01-26 01:42:00,
2013-01-25 19:52:00,6.0,-1.0,30.37,North,-999,0.0,-999.0,72,-99.99,,,-99.99,,2013-01-26 01:52:00,
2013-01-25 20:01:00,6.0,-1.0,30.38,North,-999,0.0,-999.0,72,-99.99,,,-99.99,,2013-01-26 02:01:00,
2013-01-25 20:11:00,6.0,-1.0,30.38,North,-999,0.0,-999.0,72,-99.99,,,-99.99,,2013-01-26 02:11:00,
2013-01-25 20:22:00,6.0,-1.0,30.38,North,-999,0.0,-999.0,72,-99.99,,,-99.99,,2013-01-26 02:22:00,
2013-01-25 20:32:00,6.0,-1.0,30.39,North,-999,0.0,-999.0,72,-99.99,,,-99.99,,2013-01-26 02:32:00,
2013-01-25 20:42:00,6.0,-1.0,30.39,North,-999,0.0,-999.0,72,-99.99,,,-99.99,,2013-01-26 02:42:00,
2013-01-25 20:52:00,5.0,-2.0,30.40,North,-999,0.0,-999.0,73,-99.99,,,-99.99,,2013-01-26 02:52:00,
2013-01-25 21:02:00,5.0,-2.0,30.42,North,-999,0.0,-999.0,73,-99.99,,,-99.99,,2013-01-26 03:02:00,
2013-01-25 21:11:00,5.0,-2.0,30.42,North,-999,0.0,-999.0,73,-99.99,,,-99.99,,2013-01-26 03:11:00,
2013-01-25 21:21:00,5.0,-1.0,30.42,North,-999,0.0,-999.0,74,-99.99,,,-99.99,,2013-01-26 03:21:00,
2013-01-25 21:31:00,4.0,-3.0,30.42,North,-999,0.0,-999.0,73,-99.99,,,-99.99,,2013-01-26 03:31:00,
2013-01-25 21:42:00,4.0,-3.0,30.42,North,-999,0.0,-999.0,73,-99.99,,,-99.99,,2013-01-26 03:42:00,
2013-01-25 21:51:00,4.0,-3.0,30.43,North,-999,0.0,-999.0,73,-99.99,,,-99.99,,2013-01-26 03:51:00,
2013-01-25 22:02:00,4.0,-3.0,30.43,North,-999,0.0,-999.0,73,-99.99,,,-99.99,,2013-01-26 04:02:00,
2013-01-25 22:12:00,4.0,-3.0,30.43,North,-999,0.0,-999.0,73,-99.99,,,-99.99,,2013-01-26 04:12:00,
2013-01-25 22:21:00,4.0,-3.0,30.42,North,-999,0.0,-999.0,73,-99.99,,,-99.99,,2013-01-26 04:21:00,
2013-01-25 22:32:00,4.0,-3.0,30.43,North,-999,0.0,-999.0,73,-99.99,,,-99.99,,2013-01-26 04:32:00,
2013-01-25 22:42:00,4.0,-3.0,30.43,North,-999,0.0,-999.0,73,-99.99,,,-99.99,,2013-01-26 04:42:00,
2013-01-25 22:52:00,4.0,-3.0,30.44,North,-999,0.0,-999.0,73,-99.99,,,-99.99,,2013-01-26 04:52:00,
2013-01-25 23:03:00,3.0,-4.0,30.44,North,-999,0.0,-999.0,73,-99.99,,,-99.99,,2013-01-26 05:03:00,
2013-01-25 23:12:00,3.0,-4.0,30.44,North,-999,0.0,-999.0,73,-99.99,,,-99.99,,2013-01-26 05:12:00,
2013-01-25 23:23:00,3.0,-4.0,30.44,North,-999,0.0,-999.0,73,-99.99,,,-99.99,,2013-01-26 05:23:00,
2013-01-25 23:33:00,3.0,-4.0,30.44,North,-999,0.0,-999.0,73,-99.99,,,-99.99,,2013-01-26 05:33:00,
2013-01-25 23:41:00,3.0,-4.0,30.44,North,-999,0.0,-999.0,73,-99.99,,,-99.99,,2013-01-26 05:41:00,
2013-01-25 23:52:00,3.0,-3.0,30.46,North,-999,0.0,-999.0,74,-99.99,,,-99.99,,2013-01-26 05:52:00,